Terminal Aerodrome Forecast
Issued by NWS Caribou, ME

Home | Current Version | Previous Version | Text Only | Print | Product List | Glossary On
Versions: 1 2 3 4 5 6 7 8 9 10 11 12 13 14 15 16 17 18
000
FTUS41 KCAR 030948 AAD
TAFCAR
TAF AMD
KCAR 030948Z 0310/0406 33008KT 6SM BR SCT007
     FM031200 34010KT P6SM SCT250
     FM040000 35004KT P6SM SKC=

USA.gov is the U.S. government's official web portal to all federal, state and local government web resources and services.